This is the latest recevied weather packets stored in our database for station/object SP9SOY-2. If no packets are shown the sender has not sent any weather packets the latest 10 day(s).
| Time | Temp. | Humidity | Pressure | Rain* | Wind** | Luminosity | Snow |
|---|---|---|---|---|---|---|---|
| 1777620430 | 12.78° C | 18% | - | - | - | 199 W/m² | - |
| 1777618629 | 11.11° C | 18% | - | - | - | 112 W/m² | - |
| 1777616830 | 10° C | 19% | - | - | - | 80 W/m² | - |
| 1777615036 | 8.89° C | 19% | - | - | - | 48 W/m² | - |
| 1777613230 | 8.89° C | 19% | - | - | - | 24 W/m² | - |
| 1777586231 | 9.44° C | 19% | - | - | - | 0 W/m² | - |
| 1777584432 | 9.44° C | 19% | - | - | - | 0 W/m² | - |
| 1777582631 | 10° C | 19% | - | - | - | 0 W/m² | - |
| 1777580833 | 10° C | 19% | - | - | - | 0 W/m² | - |
| 1777579037 | 10° C | 19% | - | - | - | 0 W/m² | - |
| 1777577235 | 10° C | 19% | - | - | - | 0 W/m² | - |
| 1777575430 | 10° C | 19% | - | - | - | 0 W/m² | - |
| 1777573632 | 10.56° C | 19% | - | - | - | 6 W/m² | - |
| 1777571831 | 10.56° C | 19% | - | - | - | 12 W/m² | - |
| 1777570028 | 10.56° C | 18% | - | - | - | 24 W/m² | - |
| 1777566431 | 11.67° C | 18% | - | - | - | 144 W/m² | - |
| 1777564635 | 11.67° C | 18% | - | - | - | 252 W/m² | - |
| 1777562833 | 12.22° C | 18% | - | - | - | 388 W/m² | - |
| 1777559235 | 12.22° C | 18% | - | - | - | 820 W/m² | - |
| 1777557434 | 11.67° C | 18% | - | - | - | 1116 W/m² | - |
| 1777555633 | 11.67° C | 18% | - | - | - | 967 W/m² | - |
| 1777553835 | 11.67° C | 18% | - | - | - | 818 W/m² | - |
| 1777552031 | 11.11° C | 18% | - | - | - | 894 W/m² | - |
| 1777550230 | 11.11° C | 18% | - | - | - | 970 W/m² | - |
| 1777546636 | 10.56° C | 19% | - | - | - | 1116 W/m² | - |
* Rain since midnight (hover to see other rain measurements)
** Current wind speed in m/s (hover to see current wind gust speed)